When you browse on this site, cookies collect data to enhance your experience and personalize the content and advertising you see.
Visit our Privacy Policy to learn more. By continuing to use the site, you agree to this use of cookies and data.
  • In Austria
  • List of Countries
  • For 7 days
  • Water Temperature
  • Weather Map
  • News
  • Weather Widgets
  • user-avatar
    Login

    Hourly Weather Kremnoe

    Today, 24 September, Tuesday

    Time Temperature Precipitation Wind Pressure Humidity
    00:00 +3°C° 0 mm 2 mps 755 mmHg 71%
    01:00 +4°C° 0 mm 1 mps 755 mmHg 72%
    02:00 +3°C° 0 mm 1 mps 755 mmHg 76%
    03:00 +3°C° 0 mm 1 mps 755 mmHg 77%
    04:00 +3°C° 0 mm 1 mps 755 mmHg 79%
    05:00 +3°C° 0 mm 1 mps 754 mmHg 80%
    06:00 +4°C° 0 mm 1 mps 754 mmHg 75%
    07:00 +5°C° 0 mm 1 mps 755 mmHg 71%
    08:00 +6°C° 0 mm 1 mps 755 mmHg 66%
    09:00 +7°C° 0 mm 2 mps 755 mmHg 58%
    10:00 +9°C° 0 mm 2 mps 754 mmHg 51%
    11:00 +12°C° 0 mm 2 mps 754 mmHg 44%
    12:00 +13°C° 0 mm 2 mps 754 mmHg 41%
    13:00 +13°C° 0 mm 2 mps 753 mmHg 38%
    14:00 +14°C° 0 mm 2 mps 753 mmHg 35%
    15:00 +13°C° 0 mm 2 mps 753 mmHg 39%
    16:00 +13°C° 0 mm 2 mps 752 mmHg 44%
    17:00 +12°C° 0 mm 2 mps 752 mmHg 48%
    18:00 +9°C° 0 mm 2 mps 752 mmHg 52%
    19:00 +7°C° 0 mm 2 mps 752 mmHg 56%
    20:00 +6°C° 0 mm 2 mps 752 mmHg 60%
    21:00 +5°C° 0 mm 2 mps 752 mmHg 62%
    22:00 +5°C° 0 mm 2 mps 752 mmHg 63%
    23:00 +4°C° 0 mm 2 mps 752 mmHg 65%

    Tomorrow, 25 September, Wednesday

    Time Temperature Precipitation Wind Pressure Humidity
    00:00 +4°C° 0 mm 2 mps 752 mmHg 66%
    01:00 +3°C° 0 mm 2 mps 752 mmHg 67%
    02:00 +3°C° 0 mm 2 mps 752 mmHg 68%
    03:00 +3°C° 0 mm 2 mps 752 mmHg 69%
    04:00 +3°C° 0 mm 2 mps 752 mmHg 70%
    05:00 +2°C° 0 mm 2 mps 752 mmHg 70%
    06:00 +2°C° 0 mm 3 mps 752 mmHg 67%
    07:00 +4°C° 0 mm 3 mps 751 mmHg 63%
    08:00 +5°C° 0 mm 3 mps 751 mmHg 59%
    09:00 +8°C° 0 mm 3 mps 751 mmHg 55%
    10:00 +10°C° 0 mm 3 mps 751 mmHg 51%
    11:00 +12°C° 0 mm 3 mps 751 mmHg 46%
    12:00 +13°C° 0 mm 3 mps 750 mmHg 46%
    13:00 +14°C° 0 mm 3 mps 750 mmHg 46%
    14:00 +16°C° 0 mm 3 mps 750 mmHg 46%
    15:00 +14°C° 0 mm 3 mps 749 mmHg 50%
    16:00 +14°C° 0 mm 3 mps 749 mmHg 55%
    17:00 +14°C° 0 mm 2 mps 749 mmHg 59%
    18:00 +13°C° 0 mm 2 mps 749 mmHg 62%
    19:00 +11°C° 0 mm 3 mps 749 mmHg 65%
    20:00 +10°C° 0 mm 3 mps 749 mmHg 67%
    21:00 +10°C° 0 mm 3 mps 748 mmHg 68%
    22:00 +10°C° 0 mm 3 mps 748 mmHg 68%
    23:00 +10°C° 0 mm 3 mps 748 mmHg 69%

    Day after tomorrow, 26 September, Thursday

    Time Temperature Precipitation Wind Pressure Humidity
    00:00 +9°C° 0.1 mm 3 mps 748 mmHg 72%
    01:00 +9°C° 0.1 mm 2 mps 748 mmHg 75%
    02:00 +9°C° 0.1 mm 2 mps 748 mmHg 78%
    03:00 +8°C° 0 mm 2 mps 748 mmHg 80%
    04:00 +8°C° 0 mm 2 mps 748 mmHg 82%
    05:00 +8°C° 0 mm 2 mps 748 mmHg 84%
    06:00 +8°C° 0.1 mm 2 mps 748 mmHg 84%
    07:00 +9°C° 0.1 mm 2 mps 748 mmHg 84%
    08:00 +10°C° 0.1 mm 2 mps 748 mmHg 84%
    09:00 +12°C° 0 mm 2 mps 748 mmHg 81%
    10:00 +14°C° 0 mm 2 mps 748 mmHg 77%
    11:00 +16°C° 0 mm 3 mps 749 mmHg 73%
    12:00 +17°C° 0.1 mm 3 mps 748 mmHg 72%
    13:00 +17°C° 0.1 mm 3 mps 748 mmHg 71%
    14:00 +18°C° 0.1 mm 3 mps 748 mmHg 69%
    15:00 +17°C° 0.1 mm 3 mps 748 mmHg 73%
    16:00 +16°C° 0.1 mm 2 mps 748 mmHg 76%
    17:00 +16°C° 0.1 mm 2 mps 748 mmHg 79%
    18:00 +14°C° 0 mm 2 mps 749 mmHg 85%
    19:00 +12°C° 0 mm 2 mps 749 mmHg 90%
    20:00 +10°C° 0 mm 2 mps 749 mmHg 96%
    21:00 +9°C° 0 mm 2 mps 750 mmHg 96%
    22:00 +9°C° 0 mm 2 mps 750 mmHg 97%
    23:00 +8°C° 0 mm 2 mps 750 mmHg 97%

    27 September, Friday

    Time Temperature Precipitation Wind Pressure Humidity
    00:00 +8°C° 0 mm 2 mps 750 mmHg 97%
    01:00 +8°C° 0 mm 2 mps 751 mmHg 97%
    02:00 +8°C° 0 mm 2 mps 751 mmHg 97%
    03:00 +8°C° 0 mm 2 mps 751 mmHg 97%
    04:00 +8°C° 0 mm 2 mps 751 mmHg 96%
    05:00 +8°C° 0 mm 2 mps 752 mmHg 96%
    06:00 +8°C° 0 mm 2 mps 752 mmHg 94%
    07:00 +9°C° 0 mm 2 mps 752 mmHg 92%
    08:00 +9°C° 0 mm 2 mps 752 mmHg 90%
    09:00 +10°C° 0 mm 2 mps 752 mmHg 83%
    10:00 +13°C° 0 mm 2 mps 752 mmHg 77%
    11:00 +14°C° 0 mm 2 mps 753 mmHg 71%
    12:00 +15°C° 0 mm 1 mps 753 mmHg 67%
    13:00 +16°C° 0 mm 1 mps 752 mmHg 64%
    14:00 +16°C° 0 mm 1 mps 752 mmHg 60%
    15:00 +16°C° 0 mm 1 mps 752 mmHg 63%
    16:00 +15°C° 0 mm 1 mps 752 mmHg 66%
    17:00 +15°C° 0 mm 1 mps 752 mmHg 68%
    18:00 +13°C° 0 mm 1 mps 752 mmHg 74%
    19:00 +12°C° 0 mm 1 mps 752 mmHg 80%
    20:00 +10°C° 0 mm 1 mps 753 mmHg 85%
    21:00 +10°C° 0 mm 1 mps 753 mmHg 87%
    22:00 +10°C° 0 mm 1 mps 753 mmHg 89%
    23:00 +9°C° 0 mm 1 mps 753 mmHg 91%

    28 September, Saturday

    Time Temperature Precipitation Wind Pressure Humidity
    00:00 +9°C° 0 mm 1 mps 753 mmHg 92%
    01:00 +8°C° 0 mm 2 mps 753 mmHg 93%
    02:00 +8°C° 0 mm 2 mps 753 mmHg 94%
    03:00 +8°C° 0 mm 2 mps 753 mmHg 94%
    04:00 +8°C° 0 mm 2 mps 752 mmHg 95%
    05:00 +8°C° 0 mm 2 mps 752 mmHg 95%
    06:00 +9°C° 0 mm 2 mps 752 mmHg 91%
    07:00 +9°C° 0 mm 3 mps 751 mmHg 88%
    08:00 +10°C° 0 mm 3 mps 751 mmHg 84%
    09:00 +11°C° 0.1 mm 3 mps 751 mmHg 85%
    10:00 +11°C° 0.1 mm 3 mps 751 mmHg 86%
    11:00 +11°C° 0.1 mm 4 mps 751 mmHg 87%
    12:00 +13°C° 0.3 mm 4 mps 750 mmHg 83%
    13:00 +15°C° 0.3 mm 4 mps 750 mmHg 78%
    14:00 +18°C° 0.3 mm 4 mps 749 mmHg 74%
    15:00 +17°C° 0.6 mm 4 mps 749 mmHg 76%
    16:00 +17°C° 0.6 mm 3 mps 749 mmHg 78%
    17:00 +17°C° 0.6 mm 3 mps 749 mmHg 81%
    18:00 +16°C° 0.1 mm 3 mps 749 mmHg 84%
    19:00 +15°C° 0.1 mm 2 mps 749 mmHg 87%
    20:00 +14°C° 0.1 mm 2 mps 749 mmHg 90%
    21:00 +13°C° 0 mm 2 mps 749 mmHg 91%
    22:00 +13°C° 0 mm 2 mps 749 mmHg 91%
    23:00 +12°C° 0 mm 2 mps 748 mmHg 92%

    29 September, Sunday

    Time Temperature Precipitation Wind Pressure Humidity
    00:00 +12°C° 0.1 mm 2 mps 748 mmHg 93%
    01:00 +12°C° 0.1 mm 2 mps 748 mmHg 94%
    02:00 +12°C° 0.1 mm 2 mps 748 mmHg 95%
    03:00 +12°C° 0.2 mm 2 mps 748 mmHg 95%
    04:00 +10°C° 0.2 mm 2 mps 748 mmHg 95%
    05:00 +10°C° 0.2 mm 2 mps 748 mmHg 96%
    06:00 +11°C° 0 mm 3 mps 747 mmHg 93%
    07:00 +12°C° 0 mm 3 mps 747 mmHg 90%
    08:00 +12°C° 0 mm 3 mps 747 mmHg 88%
    09:00 +13°C° 0 mm 4 mps 748 mmHg 82%
    10:00 +15°C° 0 mm 4 mps 748 mmHg 76%
    11:00 +16°C° 0 mm 5 mps 748 mmHg 70%
    12:00 +17°C° 0.1 mm 5 mps 748 mmHg 65%
    13:00 +17°C° 0.1 mm 5 mps 747 mmHg 61%
    14:00 +19°C° 0.1 mm 6 mps 747 mmHg 56%
    15:00 +17°C° 0 mm 5 mps 747 mmHg 60%
    16:00 +17°C° 0 mm 4 mps 747 mmHg 64%
    17:00 +17°C° 0 mm 3 mps 747 mmHg 68%
    18:00 +15°C° 0 mm 2 mps 747 mmHg 73%
    19:00 +14°C° 0 mm 2 mps 747 mmHg 78%
    20:00 +13°C° 0 mm 2 mps 748 mmHg 82%
    21:00 +13°C° 0 mm 2 mps 747 mmHg 82%
    22:00 +13°C° 0 mm 2 mps 747 mmHg 82%
    23:00 +13°C° 0 mm 2 mps 747 mmHg 81%
    Show more